sat.trackr.live / text

‹ back to catalog

STARLINK-36103

NORAD 66985 · 2025-288AC

PAYLOAD ACTIVE UNKNOWN

§ Identity

Operator
Country
US
Launch date
2025-12-08
Launch site
AFETR
Launch vehicle
Mass (kg)
RCS (m²)

Purposes: comms

External: N2YO · Heavens-Above · Gunter

§ Orbital elements

Epoch: 2026-05-25T04:33:03.804768Z

Period
94.27 min
Inclination
43.0019°
Eccentricity
0.0002577
Mean motion
15.27587552 rev/d
Perigee alt
481.3 km
Apogee alt
484.8 km
Semi-major
6,861.2 km
B*
5.6446e-4
RAAN
311.7154°
Arg perigee
272.8384°
Mean anomaly
87.2173°
Rev number
2,698

§ Raw data

STARLINK-361031 66985U 25288AC  26145.18962737  .00015307  00000+0  56446-3 0  99932 66985  43.0019 311.7154 0002577 272.8384  87.2173 15.27587552 26980

JSON: /api/v1/satellites/66985 · /tle

For live sub-satellite position, see the globe view (requires WebGL).

§ Visibility from observer

Set your observer location to see the next 7 days of passes ≥ 10°. The values pass through the URL so the page stays shareable.

No JS? Fill the form by hand. The geolocation button needs JavaScript.